Weather observations for the past three days for
Nome, Nome Airport
| Date | Time (akdt) | Wind (mph) | Vis. (mi.) | Weather | Sky Cond. | Temperature (ºF) | Relative Humidity | Wind Chill (°F) | Heat Index (°F) | Pressure | Precipitation (in) | ||||||
|---|---|---|---|---|---|---|---|---|---|---|---|---|---|---|---|---|---|
| Air | Dwpt | 6 hour | altimeter (in) | sea level (mb) | 1 hr | 3 hr | 6 hr | ||||||||||
| Max. | Min. | ||||||||||||||||
| 05 | 21:53 | NE 6 | 10.00 | Fair | CLR | 32 | 21.9 | 36 | 30.9 | 66% | 27 | 29.94 | 1014.0 | ||||
| 05 | 20:53 | NW 10 | 10.00 | Fair | CLR | 32 | 19 | 59% | 24 | 29.94 | 1013.8 | ||||||
| 05 | 19:53 | NW 7 | 10.00 | Fair | CLR | 33.1 | 19 | 56% | 28 | 29.94 | 1013.8 | ||||||
| 05 | 18:53 | W 17 | 10.00 | Fair | CLR | 34 | 21.9 | 61% | 24 | 29.93 | 1013.6 | ||||||
| 05 | 17:53 | W 15 | 10.00 | Fair | CLR | 35.1 | 23 | 61% | 26 | 29.92 | 1013.3 | ||||||
| 05 | 16:53 | NW 12 | 10.00 | Fair | CLR | 35.1 | 21 | 57% | 28 | 29.92 | 1013.0 | ||||||
| 05 | 15:53 | W 9 | 10.00 | Fair | CLR | 35.1 | 23 | 35.1 | 27 | 61% | 29 | 29.91 | 1013.0 | ||||
| 05 | 14:53 | W 5 | 10.00 | Fair | CLR | 34 | 21 | 59% | 30 | 29.92 | 1013.1 | ||||||
| 05 | 13:53 | NW 5 | 10.00 | Fair | CLR | 33.1 | 19 | 56% | 29 | 29.91 | 1012.9 | ||||||
| 05 | 12:53 | W 6 | 10.00 | Fair | CLR | 30.9 | 19 | 61% | 26 | 29.92 | 1013.0 | ||||||
| 05 | 11:53 | Calm | 10.00 | Fair | CLR | 30.9 | 19 | 61% | 29.92 | 1013.1 | |||||||
| 05 | 10:53 | Calm | 10.00 | Fair | CLR | 28.9 | 19 | 66% | 29.92 | 1013.0 | |||||||
| 05 | 09:53 | Calm | 10.00 | Fair | CLR | 27 | 19 | 27 | 19.9 | 72% | 29.92 | 1013.2 | |||||
| 05 | 08:53 | W 6 | 10.00 | Fair | CLR | 25 | 19 | 78% | 19 | 29.92 | 1013.0 | ||||||
| 05 | 07:53 | W 6 | 10.00 | Fair | CLR | 24.1 | 18 | 77% | 18 | 29.91 | 1012.9 | ||||||
| 05 | 06:53 | NW 7 | 10.00 | Fair | CLR | 21.9 | 18 | 85% | 14 | 29.91 | 1012.8 | ||||||
| 05 | 05:53 | NW 6 | 10.00 | Fair | CLR | 21 | 18 | 88% | 14 | 29.91 | 1012.9 | ||||||
| 05 | 04:53 | NW 6 | 10.00 | Fair | CLR | 21.9 | 19 | 89% | 15 | 29.91 | 1012.9 | ||||||
| 05 | 03:53 | W 12 | 10.00 | Fair | CLR | 24.1 | 19.9 | 34 | 23 | 84% | 14 | 29.92 | 1013.3 | ||||
| 05 | 02:53 | W 6 | 10.00 | Fair | CLR | 25 | 19.9 | 81% | 19 | 29.92 | 1013.4 | ||||||
| 05 | 01:53 | NW 5 | 10.00 | Fair | CLR | 26.1 | 21 | 81% | 21 | 29.94 | 1013.7 | ||||||
| 05 | 00:53 | N 6 | 10.00 | Fair | CLR | 28 | 21 | 75% | 22 | 29.94 | 1014.0 | ||||||
| 04 | 23:53 | NW 3 | 10.00 | Fair | CLR | 28.9 | 21.9 | 75% | 29.95 | 1014.3 | |||||||
| 04 | 22:53 | NW 7 | 10.00 | Fair | CLR | 30.9 | 23 | 72% | 25 | 29.96 | 1014.5 | ||||||
| 04 | 21:53 | NW 7 | 10.00 | Fair | CLR | 34 | 23 | 36 | 32 | 64% | 29 | 29.97 | 1014.8 | ||||
| 04 | 20:53 | NW 8 | 10.00 | Fair | CLR | 36 | 21 | 55% | 30 | 29.97 | 1015.0 | ||||||
| 04 | 19:53 | NW 8 | 10.00 | Fair | CLR | 36 | 19.9 | 52% | 30 | 29.98 | 1015.3 | ||||||
| 04 | 18:53 | NW 8 | 10.00 | Fair | CLR | 36 | 21 | 55% | 30 | 29.99 | 1015.5 | ||||||
| 04 | 17:53 | N 8 | 10.00 | Fair | CLR | 35.1 | 21 | 57% | 29 | 30.01 | 1016.1 | ||||||
| 04 | 16:53 | NW 9 | 10.00 | Fair | CLR | 34 | 19.9 | 56% | 27 | 30.03 | 1016.8 | ||||||
| 04 | 15:53 | W 12 | 10.00 | Fair | CLR | 33.1 | 24.1 | 34 | 27 | 70% | 25 | 30.04 | 1017.3 | ||||
| 04 | 14:53 | W 7 | 10.00 | Fair | CLR | 32 | 21 | 64% | 26 | 30.06 | 1018.0 | ||||||
| 04 | 13:53 | W 5 | 10.00 | Fair | CLR | 30.9 | 21 | 67% | 27 | 30.07 | 1018.4 | ||||||
| 04 | 12:53 | W 6 | 10.00 | Fair | CLR | 30 | 21 | 69% | 25 | 30.08 | 1018.7 | ||||||
| 04 | 11:53 | NW 3 | 10.00 | Fair | CLR | 28.9 | 19.9 | 69% | 30.09 | 1018.9 | |||||||
| 04 | 10:53 | Vrbl 3 | 10.00 | Mostly Cloudy | BKN019 | 28.9 | 19.9 | 69% | 30.1 | 1019.3 | |||||||
| 04 | 09:53 | W 5 | 10.00 | Overcast | OVC018 | 27 | 19.9 | 28 | 27 | 75% | 22 | 30.11 | 1019.5 | ||||
| 04 | 08:53 | W 6 | 10.00 | Overcast | OVC018 | 27 | 19.9 | 75% | 21 | 30.11 | 1019.6 | ||||||
| 04 | 07:53 | W 6 | 10.00 | Overcast | OVC017 | 27 | 21.9 | 81% | 21 | 30.11 | 1019.7 | ||||||
| 04 | 06:53 | Calm | 10.00 | Overcast | OVC019 | 27 | 21 | 78% | 30.11 | 1019.8 | |||||||
| 04 | 05:53 | Calm | 10.00 | Overcast | OVC019 | 27 | 21 | 78% | 30.11 | 1019.7 | |||||||
| 04 | 04:53 | N 5 | 10.00 | Overcast | OVC017 | 28 | 21.9 | 78% | 24 | 30.11 | 1019.7 | ||||||
| 04 | 03:53 | NW 3 | 10.00 | Overcast | OVC015 | 28 | 23 | 28 | 28 | 81% | 30.12 | 1019.8 | |||||
| 04 | 02:53 | Vrbl 3 | 10.00 | Overcast | OVC015 | 28 | 21.9 | 78% | 30.12 | 1019.9 | |||||||
| 04 | 01:53 | NW 3 | 10.00 | Overcast | OVC015 | 28 | 23 | 81% | 30.11 | 1019.7 | |||||||
| 04 | 00:53 | W 3 | 8.00 | Overcast | OVC014 | 28 | 25 | 88% | 30.12 | 1019.8 | |||||||
| 03 | 23:53 | Calm | 8.00 | Overcast | OVC013 | 28 | 25 | 88% | 30.11 | 1019.6 | |||||||
| 03 | 22:53 | Calm | 10.00 | Overcast | OVC015 | 28 | 25 | 88% | 30.11 | 1019.5 | |||||||
| 03 | 21:53 | SW 3 | 10.00 | Overcast | OVC013 | 28 | 24.1 | 28.9 | 28 | 85% | 30.11 | 1019.5 | |||||
| 03 | 20:53 | S 5 | 10.00 | Overcast | BKN013 OVC055 | 28 | 24.1 | 85% | 24 | 30.11 | 1019.5 | ||||||
| 03 | 19:53 | S 8 | 10.00 | Overcast | OVC012 | 28.9 | 24.1 | 82% | 22 | 30.11 | 1019.6 | ||||||
| 03 | 18:53 | S 7 | 10.00 | Overcast | OVC013 | 28 | 25 | 88% | 22 | 30.11 | 1019.6 | ||||||
| 03 | 17:53 | S 8 | 10.00 | Overcast | OVC012 | 28.9 | 24.1 | 82% | 22 | 30.11 | 1019.5 | ||||||
| 03 | 16:53 | SW 8 | 10.00 | Overcast | OVC010 | 28 | 25 | 88% | 21 | 30.11 | 1019.6 | ||||||
| 03 | 15:53 | S 6 | 8.00 | Overcast | OVC010 | 28 | 25 | 28.9 | 26.1 | 88% | 22 | 30.11 | 1019.7 | ||||
| 03 | 14:53 | S 6 | 10.00 | Overcast | OVC010 | 28 | 25 | 88% | 22 | 30.11 | 1019.5 | ||||||
| 03 | 13:53 | S 7 | 10.00 | Overcast | OVC011 | 28 | 24.1 | 85% | 22 | 30.1 | 1019.4 | ||||||
| 03 | 12:53 | S 8 | 10.00 | Overcast | OVC014 | 28 | 23 | 81% | 21 | 30.1 | 1019.4 | ||||||
| 03 | 11:53 | S 9 | 8.00 | Overcast | OVC013 | 28 | 25 | 88% | 20 | 30.1 | 1019.2 | ||||||
| 03 | 10:53 | S 7 | 10.00 | Overcast | OVC011 | 27 | 24.1 | 89% | 20 | 30.08 | 1018.8 | ||||||
| 03 | 09:53 | SE 7 | 10.00 | Overcast | OVC011 | 27 | 21.9 | 27 | 21.9 | 81% | 20 | 30.08 | 1018.6 | ||||
| 03 | 08:53 | SE 3 | 10.00 | Overcast | OVC011 | 27 | 21 | 78% | 30.06 | 1018.1 | |||||||
| 03 | 07:53 | Calm | 10.00 | Overcast | OVC016 | 26.1 | 19.9 | 78% | 30.06 | 1017.9 | |||||||
| 03 | 06:53 | Calm | 10.00 | Overcast | OVC016 | 24.1 | 19.9 | 84% | 30.05 | 1017.8 | |||||||
| 03 | 05:53 | W 5 | 10.00 | Partly Cloudy | SCT016 | 23 | 19 | 85% | 18 | 30.04 | 1017.4 | ||||||
| 03 | 04:53 | W 8 | 10.00 | Fair | CLR | 21.9 | 19 | 89% | 13 | 30.03 | 1017.0 | ||||||
| 03 | 03:53 | W 12 | 10.00 | Fair | CLR | 23 | 19 | 26.1 | 23 | 85% | 13 | 30.02 | 1016.5 | ||||
| 03 | 02:53 | W 9 | 10.00 | Fair | CLR | 24.1 | 19.9 | 84% | 15 | 30 | 1015.9 | ||||||
| 03 | 01:53 | W 13 | 10.00 | Mostly Cloudy | BKN018 | 25 | 19.9 | 81% | 14 | 29.98 | 1015.2 | ||||||
| 03 | 00:53 | Vrbl 3 | 10.00 | Overcast | OVC019 | 25 | 19 | 78% | 29.96 | 1014.7 | |||||||
| 02 | 23:53 | W 13 | 10.00 | Fair | CLR | 25 | 19 | 78% | 14 | 29.93 | 1013.7 | ||||||
| 02 | 22:53 | W 13 | 10.00 | Mostly Cloudy | SCT020 BKN027 | 25 | 19 | 78% | 14 | 29.9 | 1012.6 | ||||||
| Date | Time (akdt) | Wind (mph) | Vis. (mi.) | Weather | Sky Cond. | Air | Dwpt | Max. | Min. | Relative Humidity | Wind Chill (°F) | Heat Index (°F) | altimeter (in) | sea level (mb) | 1 hr | 3 hr | 6 hr |
| 6 hour | |||||||||||||||||
| Temperature (ºF) | Pressure | Precipitation (in) | |||||||||||||||